Location: New Canada
(47.1017°N, 68.5042°W)
Time: 12:21:14
(UTC+00:00)

BlueWalker 3 - Pass Details

Date: 08 December 2022
Orbit: 499 x 517 km, 53.2° (Epoch: 01 February)

Event Time Altitude Azimuth Distance (km) Brightness Sun altitude
Rises 23:50:23 0° 294° (WNW) 2,623 6.5 -30.6°
Reaches altitude 10° 23:52:49 10° 281° (WNW) 1,729 5.5 -31.0°
Enters shadow 23:54:37 20° 259° (W) 1,204 4.5 -31.3°
